Regional Weather Roundup
Issued by NWS

Home | Current Version | Previous Version | Graphics & Text | Print | Product List | Glossary On
Versions: 1 2 3 4 5 6 7 8 9 10 11 12 13 14 15 16 17 18 19 20 21 22 23 24 25 26 27 28 29 30 31 32 33 34 35 36 37 38 39 40 41 42 43 44 45 46 47 48 49 50
000
ASUS43 KIND 250159
RWRIN

WEATHER ROUNDUP FOR INDIANA
NATIONAL WEATHER SERVICE INDIANAPOLIS IN
1000 PM EDT MON JUL 24 2017

NOTE: "FAIR" INDICATES FEW OR NO CLOUDS BELOW 12,000 FEET WITH NO
SIGNIFICANT WEATHER AND/OR OBSTRUCTIONS TO VISIBILITY.

* - STATION DOES NOT REPORT WEATHER SUCH AS PRECIPITATION OR FOG.

+ - STATION NOT QUALITY CONTROLLED BY THE NATIONAL WEATHER SERVICE.
    USE DATA WITH CAUTION...ESPECIALLY DEWPOINT AND RELATIVE
    HUMIDITY OBSERVATIONS.

INZ001>003-010>013-019-020-250300-
NORTHWEST INDIANA

CITY           SKY/WX    TMP DP  RH WIND       PRES   REMARKS
GARY /AIRPORT/ PTCLDY    68  61  77 NE8       30.09R
MONTICELLO +   CLEAR     68  62  81 N3        30.05R

$$

LMZ046-743>745-250300-
SOUTHERN LAKE MICHIGAN

STATION/POSITION TIME  TEMP    WIND        PRES    WAVE
                       AIR SEA DIR/SP/G            HT
                 (UTC) (F)     (DEG/KT/KT) (MB)    (FT)
BURNS HARBOR     0140   70      30/ 10/ 12 1019.0R
MICHIGAN CITY    0130   69      20/ 11/ 12   N/A
5NW MICH CITY    0150   70 74   40/ 10/ 14   N/A     4

$$

INZ004-005-014>016-021>024-250300-
NORTH CENTRAL INDIANA

CITY           SKY/WX    TMP DP  RH WIND       PRES   REMARKS
GOSHEN         CLEAR     65  57  75 CALM      30.08R
SOUTH BEND     PTCLDY    65  62  90 N9        30.08R

$$

INZ006>009-017-018-025>027-250300-
NORTHEAST INDIANA

CITY           SKY/WX    TMP DP  RH WIND       PRES   REMARKS
FORT WAYNE     PTCLDY    64  57  78 NE6       30.08R
KENDALLVILLE + CLEAR     61  59  93 CALM      30.09R

$$

INZ028-029-035-036-043>045-051>053-250300-
WEST CENTRAL INDIANA

CITY           SKY/WX    TMP DP  RH WIND       PRES   REMARKS
LAFAYETTE      CLEAR     68  62  81 N5        30.05R
TERRE HAUTE    CLEAR     73  65  75 NE6       30.04R

$$

INZ030>032-037>040-046>048-054>057-064-065-250300-
CENTRAL INDIANA

CITY           SKY/WX    TMP DP  RH WIND       PRES   REMARKS
COLUMBUS       CLEAR     70  66  88 NE6       30.03R
GREENWOOD *+   CLEAR    N/A N/A N/A NE8       30.05R
INDIANAPOLIS   PTCLDY    73  62  68 NE10      30.04R
-EAGLE CREEK   CLEAR     74  61  63 NE7       30.04R
KOKOMO +       CLEAR     66  62  87 NE5       30.08R
MT COMFORT *+  CLEAR     66  63  88 NE5       30.06R
SHELBYVILLE    CLEAR     71  62  73 NE7       30.04R

$$

INZ033-034-041-042-049-050-058-059-250300-
EAST CENTRAL INDIANA

CITY           SKY/WX    TMP DP  RH WIND       PRES   REMARKS
MUNCIE         CLEAR     68  60  75 E6        30.07R
RICHMOND +     CLEAR     64  59  82 NE5       30.08R

$$

INZ060-061-067>069-081>083-085>088-250300-
SOUTHWEST INDIANA

CITY           SKY/WX    TMP DP  RH WIND       PRES   REMARKS
EVANSVILLE     CLEAR     77  68  73 NE3       30.00R
HUNTINGBURG *+ CLEAR     77  69  76 N5        30.00R

$$

INZ062-063-066-070>080-084-089>092-250300-
SOUTH CENTRAL AND SOUTHEAST INDIANA

CITY           SKY/WX    TMP DP  RH WIND       PRES   REMARKS
BLOOMINGTON    CLEAR     72  65  78 N6        30.03R
MADISON *+     CLEAR     73  64  73 CALM      30.05R
SEYMOUR +      CLEAR    N/A N/A N/A NE6       30.02R

$$





USA.gov is the U.S. government's official web portal to all federal, state and local government web resources and services.